Printer-friendly version

IAU Minor Planet Center

Minor Planet Center

MPEC 2004-V30 : 2004 VZ14

The following Minor Planet Electronic Circular may be linked-to from your own Web pages, but must not otherwise be redistributed electronically.

A form allowing access to any MPEC is at the bottom of this page.


Read MPEC 2004-V29 Read MPEC 2004-V31


M.P.E.C. 2004-V30                                Issued 2004 Nov. 6, 13:25 UT

     The Minor Planet Electronic Circulars contain information on unusual
         minor planets and routine data on comets.  They are published
   on behalf of Commission 20 of the International Astronomical Union by the
          Minor Planet Center, Smithsonian Astrophysical Observatory,
                          Cambridge, MA 02138, U.S.A.

                  Supported in part by the Brinson Foundation
             Prepared using the Tamkin Foundation Computer Network

                              MPC@CFA.HARVARD.EDU
          URL http://cfa-www.harvard.edu/iau/mpc.html  ISSN 1523-6714

                                   2004 VZ14

Observations:
     K04V14Z* C2004 11 04.46426 03 59 07.92 +23 48 56.2          18.0 R EV030703
     K04V14Z  C2004 11 04.47450 03 58 55.53 +23 49 17.3          18.4 R EV030703
     K04V14Z  C2004 11 04.48478 03 58 43.14 +23 49 38.1          18.1 R EV030703
     K04V14Z  C2004 11 04.49502 03 58 31.11 +23 49 57.5          17.4 R EV030703
     K04V14Z  C2004 11 04.94503 03 51 04.99 +24 04 43.9          19.1 R EV030J95
     K04V14Z  C2004 11 04.95091 03 50 59.25 +24 04 54.0          18.6 R EV030J95
     K04V14Z  C2004 11 04.95798 03 50 52.23 +24 05 08.3          19.1 R EV030J95
     K04V14Z  C2004 11 05.81844 03 39 30.11 +24 25 05.9          19.5 V EV030A50
     K04V14Z  C2004 11 05.81970 03 39 29.14 +24 25 06.7          18.7 V EV030A50
     K04V14Z  C2004 11 05.82054 03 39 28.57 +24 25 08.8          19.2 V EV030A50
     K04V14Z  C2004 11 05.82096 03 39 28.15 +24 25 08.9          18.9 V EV030A50
     K04V14Z  C2004 11 05.82222 03 39 27.36 +24 25 12.2          19.1 V EV030A50
     K04V14Z  C2004 11 05.82516 03 39 25.25 +24 25 12.8          19.6 V EV030A50
     K04V14Z SC2004 11 05.95469 03 37 57.40 +24 27 30.4                 EV030J95
     K04V14Z SC2004 11 05.99099 03 37 32.44 +24 28 12.9                 EV030J95

Observer details:
703 Catalina Sky Survey.  Observer E. J. Christensen.  Measurers E. C. Beshore,
    C. M. Casey, E. J. Christensen, G. J. Garradd, R. E. Hill, S. M. Larson,
    R. H. McNaught.  0.68-m Schmidt + CCD.
A50 Andrushivka Astronomical Observatory.  Observers Y. Ivashchenko, V. Lokot.
    0.6-m f/1.2 reflector + CCD.
J95 Great Shefford.  Observer P. Birtwhistle.  0.30-m f/6.3 Schmidt-Cassegrain
    + CCD.

Orbital elements:
2004 VZ14
Epoch 2005 Jan. 30.0 TT = JDT 2453400.5                 MPC
M  68.69569              (2000.0)            P               Q
n   0.49402094     Peri.  280.09884     +0.78283732     +0.61978684
a   1.5847928      Node    41.62983     -0.53350467     +0.71410974
e   0.5464314      Incl.    4.75301     -0.32021634     +0.32544056
P   2.00           H   24.7           G   0.15           U   8
Residuals in seconds of arc
041104 703  0.2+  1.1+    041104 J95  0.3+  0.9-    041105 A50  1.2-  0.5+
041104 703  0.1-  0.8+    041104 J95  0.3-  0.5-    041105 A50  0.3+  2.2+
041104 703  1.1-  0.5+    041105 A50  0.9+  0.8+    041105 A50  0.2+  1.0-
041104 703  0.7+  0.7-    041105 A50  0.0   0.0     041105 J95  0.7-  1.7-
041104 J95  0.5-  0.6+    041105 A50  0.4+  1.0+    041105 J95  0.5+  1.2+

Ephemeris:
2004 VZ14                a,e,i = 1.58, 0.55, 5                   q = 0.7188
Date    TT    R. A. (2000) Decl.     Delta      r     Elong.  Phase     V
2004 11 01    07 20.52   +08 31.2    0.013    0.996   107.8    71.5    17.8
2004 11 06    03 37.42   +24 29.6    0.051    1.040   165.2    14.1    19.1
2004 11 11    03 08.68   +24 58.9    0.096    1.085   172.4     6.9    20.3
2004 11 16    02 58.33   +24 58.4    0.142    1.129   171.0     7.8    21.3
2004 11 21    02 53.56   +24 52.7    0.190    1.174   166.7    11.1    22.1

Kyle E. Smalley              (C) Copyright 2004 MPC           M.P.E.C. 2004-V30

Read MPEC 2004-V29 Read MPEC 2004-V31


MPEC number:

Enter an
MPEC number in one of the following forms:
  • 1997-B01 (the full form)
  • J97B01 (the packed version of the full form)
  • B01 (the abbreviated form)

Valid HTML 4.01!